• Processing (Info)

  • MPEC 2006-G18 : 2006 GZ

    The following Minor Planet Electronic Circular may be linked-to from your own Web pages, but must not otherwise be redistributed electronically.

    A form allowing access to any MPEC is at the bottom of this page.


    Read MPEC 2006-G17 Read MPEC 2006-G19


    M.P.E.C. 2006-G18                                Issued 2006 Apr. 4, 15:38 UT
    
         The Minor Planet Electronic Circulars contain information on unusual
             minor planets and routine data on comets.  They are published
       on behalf of Commission 20 of the International Astronomical Union by the
              Minor Planet Center, Smithsonian Astrophysical Observatory,
                              Cambridge, MA 02138, U.S.A.
    
                      Supported in part by the Brinson Foundation
                      Supported in part by the TABASGO Foundation
                 Prepared using the Tamkin Foundation Computer Network
    
                                  MPC@CFA.HARVARD.EDU
              URL http://cfa-www.harvard.edu/iau/mpc.html  ISSN 1523-6714
    
                                        2006 GZ
    
    Observations:
         K06G00Z* C2006 04 02.17934 12 54 03.41 +02 13 24.4          20.9 V EG018691
         K06G00Z  C2006 04 02.19666 12 54 01.22 +02 13 25.8          20.5 V EG018691
         K06G00Z  C2006 04 02.21397 12 53 59.02 +02 13 27.8          20.6 V EG018691
         K06G00Z  C2006 04 03.00868 12 52 19.99 +02 14 50.7                 EG018J95
         K06G00Z  C2006 04 03.01416 12 52 19.25 +02 14 51.6                 EG018J95
         K06G00Z  C2006 04 03.01939 12 52 18.58 +02 14 51.8          20.5 R EG018J95
         K06G00Z  C2006 04 04.00570 12 50 14.67 +02 16 31.8                 EG018J95
         K06G00Z SC2006 04 04.01696 12 50 13.28 +02 16 33.5          20.4 R EG018J95
         K06G00Z  C2006 04 04.15347 12 49 56.42 +02 16 49.4          20.2 R EG018734
         K06G00Z  C2006 04 04.16230 12 49 55.25 +02 16 49.1          20.7 R EG018734
         K06G00Z  C2006 04 04.17113 12 49 54.10 +02 16 49.5          20.6 R EG018734
    
    Observer details:
    691 Steward Observatory, Kitt Peak.  Observer A. F. Tubbiolo.  0.9-m f/3
        reflector + CCD.
    734 Farpoint Observatory.  Observer G. Hug.  0.7-m reflector + CCD.
    J95 Great Shefford.  Observer P. Birtwhistle.  0.40-m f/6.0 Schmidt-Cassegrain
        + CCD.
    
    Orbital elements:
    2006 GZ                                             PHA, Earth MOID = 0.0466 AU
    Epoch 2006 Mar. 6.0 TT = JDT 2453800.5                  MPC
    M 259.76852              (2000.0)            P               Q
    n   0.50588876     Peri.  298.25920     +0.78334578     +0.61273587
    a   1.5599094      Node    24.41291     -0.44381865     +0.66907950
    e   0.4199774      Incl.   14.64813     -0.43519467     +0.42057981
    P   1.95           H   19.8           G   0.15           U   9
    Residuals in seconds of arc
    060402 691  0.1+  0.8+    060403 J95  0.2-  0.1+    060404 734  0.3+  1.2+
    060402 691  0.0   0.3+    060403 J95  0.2-  0.3-    060404 734  0.1-  0.0
    060402 691  0.1-  0.3+    060404 J95  0.5-  0.4-    060404 734  0.2-  0.4-
    060403 J95  0.4+  0.2-    060404 J95  0.5+  0.2+
    
    Ephemeris:
    2006 GZ                  a,e,i = 1.56, 0.42, 15                  q = 0.9048
    Date    TT    R. A. (2000) Decl.     Delta      r     Elong.  Phase     V
    2006 04 05    12 48.14   +02 18.2    0.766    1.762   171.6     4.8    20.9
    2006 04 15    12 26.26   +02 23.7    0.735    1.712   159.7    11.7    21.0
    2006 04 25    12 05.28   +02 05.6    0.728    1.659   145.7    20.0    21.2
    2006 05 05    11 48.00   +01 19.9    0.741    1.604   132.4    27.6    21.4
    2006 05 15    11 36.02   +00 07.2    0.766    1.547   120.5    34.3    21.6
    2006 05 25    11 29.64   -01 29.0    0.797    1.488   110.0    39.8    21.7
    2006 06 04    11 28.52   -03 26.1    0.830    1.427   100.9    44.3    21.9
    2006 06 14    11 31.95   -05 42.3    0.858    1.364    93.1    48.0    21.9
    2006 06 24    11 39.25   -08 15.9    0.879    1.301    86.3    51.2    22.0
    
    Kyle E. Smalley              (C) Copyright 2006 MPC           M.P.E.C. 2006-G18
    

    Read MPEC 2006-G17 Read MPEC 2006-G19


    MPEC number:

    Enter an MPEC number in one of the following forms:

    • 1997-B01 (the full form)
    • J97B01 (the packed version of the full form)
    • B01 (the abbreviated form)